Port Angeles, WA

8:35 PM PDT on April 27, 2017 (GMT -0700)
Fairchild International

Weather History for KCLM - May, 2013

Change the Weather History Date:

Saturday, May 18, 2013

  Actual Average Record
Temperature  
Mean Temperature 50 °F -  
Max Temperature 57 °F 61 °F 80 °F (1956)
Min Temperature 46 °F 45 °F 34 °F (1987)
Degree Days  
Heating Degree Days 14    
Moisture  
Dew Point 47 °F    
Average Humidity 88    
Maximum Humidity 100    
Minimum Humidity 74    
Precipitation  
Precipitation 0.00 in - - ()
Sea Level Pressure  
Sea Level Pressure 30.13 in    
Wind  
Wind Speed 3 mph (West)    
Max Wind Speed 8 mph    
Max Gust Speed -    
Visibility 9 miles    
Events      
Averages and records for this station are not official NWS values.
T = Trace of Precipitation, MM = Missing Value Source: NWS Daily Summary

Daily Weather History Graph

Daily Weather History Graph

Search for Another Location

Airport or City:

Trip Planner

Search our weather history database for the weather conditions in past years. The results will help you decide how hot, cold, wet, or windy it might be!

Date:

Astronomy

May. 18, 2013 Rise Set
Actual Time 5:30 AM PDT 8:50 PM PDT
Civil Twilight 4:52 AM PDT 9:28 PM PDT
Nautical Twilight 4:03 AM PDT 10:18 PM PDT
Astronomical Twilight 2:59 AM PDT 11:23 PM PDT
Moon 1:29 PM PDT (5/18) 1:58 AM PDT (5/18)
Length of Visible Light 16h 35m
Length of Day
15h 20m
First Quarter, 56% of the Moon is Illuminated
May 18
First Quarter
May 24
Full
May 31
Last Quarter
Jun 8
New
Jun 16
First Quarter

Hourly Weather History & Observations

Time (PDT) Temp. Windchill Dew Point Humidity Pressure Visibility Wind Dir Wind Speed Gust Speed Precip Events Conditions
12:07 AM 46.9 °F - 46.0 °F 97% 30.04 in 0.8 mi Calm Calm - N/A   Mist
12:21 AM 46.9 °F - 46.0 °F 97% 30.05 in 1.2 mi Calm Calm - N/A   Scattered Clouds
12:28 AM 48.0 °F - 46.0 °F 93% 30.05 in 3.0 mi Calm Calm - N/A   Mostly Cloudy
12:35 AM 48.0 °F - 46.9 °F 96% 30.05 in 10.0 mi Calm Calm - N/A   Mostly Cloudy
12:43 AM 46.0 °F 44.8 °F 46.0 °F 100% 30.05 in 2.5 mi WSW 3.5 mph - N/A   Scattered Clouds
12:49 AM 46.4 °F 43.5 °F 44.6 °F 93% 30.05 in 1.8 mi WSW 5.8 mph - N/A   Scattered Clouds
12:53 AM 46.9 °F - 45.0 °F 93% 30.06 in 3.0 mi WSW 4.6 mph - N/A   Mostly Cloudy
1:00 AM 48.0 °F - 46.9 °F 96% 30.05 in 8.0 mi SW 4.6 mph - N/A   Mostly Cloudy
1:17 AM 48.0 °F - 48.0 °F 100% 30.05 in 10.0 mi SW 3.5 mph - N/A   Mostly Cloudy
1:38 AM 48.0 °F - 46.9 °F 96% 30.06 in 10.0 mi SW 3.5 mph - N/A   Mostly Cloudy
1:53 AM 48.0 °F - 46.9 °F 96% 30.06 in 10.0 mi SW 4.6 mph - N/A   Overcast
2:53 AM 46.9 °F - 46.0 °F 97% 30.06 in 10.0 mi SW 4.6 mph - N/A   Partly Cloudy
3:11 AM 46.9 °F - 46.0 °F 97% 30.06 in 10.0 mi SW 5.8 mph - N/A   Mostly Cloudy
3:34 AM 48.0 °F - 46.0 °F 93% 30.06 in 10.0 mi Calm Calm - N/A   Overcast
3:53 AM 46.9 °F - 46.0 °F 97% 30.06 in 10.0 mi Calm Calm - N/A   Overcast
4:53 AM 46.9 °F - 45.0 °F 93% 30.06 in 10.0 mi WSW 3.5 mph - N/A   Scattered Clouds
5:11 AM 46.9 °F - 45.0 °F 93% 30.06 in 10.0 mi WSW 5.8 mph - N/A   Mostly Cloudy
5:22 AM 46.9 °F - 45.0 °F 93% 30.06 in 10.0 mi WSW 3.5 mph - N/A   Overcast
5:53 AM 48.0 °F - 46.0 °F 93% 30.07 in 10.0 mi Calm Calm - N/A   Overcast
6:53 AM 48.9 °F - 46.9 °F 93% 30.09 in 10.0 mi West 3.5 mph - 0.00 in   Overcast
7:18 AM 48.9 °F - 46.9 °F 93% 30.09 in 10.0 mi WSW 4.6 mph - N/A   Overcast
7:46 AM 50.0 °F - 48.0 °F 93% 30.09 in 10.0 mi Calm Calm - N/A   Overcast
7:53 AM 50.0 °F - 48.0 °F 93% 30.10 in 10.0 mi Calm Calm - N/A   Overcast
8:18 AM 51.1 °F - 48.0 °F 89% 30.10 in 10.0 mi Calm Calm - N/A   Overcast
8:53 AM 52.0 °F - 48.9 °F 89% 30.11 in 10.0 mi Calm Calm - N/A   Overcast
9:11 AM 52.0 °F - 48.0 °F 86% 30.11 in 10.0 mi Calm Calm - N/A   Overcast
9:22 AM 52.0 °F - 48.9 °F 89% 30.11 in 10.0 mi Calm Calm - N/A   Overcast
9:53 AM 52.0 °F - 48.0 °F 86% 30.12 in 10.0 mi North 4.6 mph - N/A   Overcast
10:20 AM 53.1 °F - 48.0 °F 83% 30.12 in 10.0 mi Variable 3.5 mph - N/A   Overcast
10:44 AM 53.1 °F - 48.0 °F 83% 30.13 in 10.0 mi Variable 3.5 mph - N/A   Overcast
10:53 AM 53.1 °F - 48.0 °F 83% 30.14 in 10.0 mi North 3.5 mph - N/A   Overcast
11:14 AM 53.1 °F - 48.0 °F 83% 30.14 in 10.0 mi NNW 4.6 mph - N/A   Overcast
11:53 AM 53.6 °F - 46.4 °F 77% 30.15 in 10.0 mi Calm Calm - N/A   Overcast
12:53 PM 55.0 °F - 46.9 °F 74% 30.17 in 10.0 mi North 4.6 mph - N/A   Overcast
1:02 PM 54.0 °F - 46.9 °F 77% 30.17 in 10.0 mi North 4.6 mph - N/A   Overcast
1:53 PM 54.0 °F - 46.9 °F 77% 30.18 in 10.0 mi North 5.8 mph - N/A   Overcast
2:53 PM 55.9 °F - 50.0 °F 80% 30.19 in 10.0 mi Variable 4.6 mph - 0.00 in   Overcast
3:53 PM 55.9 °F - 48.9 °F 77% 30.20 in 10.0 mi North 3.5 mph - N/A   Overcast
4:53 PM 55.9 °F - 48.0 °F 75% 30.21 in 10.0 mi North 5.8 mph - N/A   Mostly Cloudy
5:53 PM 55.0 °F - 48.0 °F 77% 30.22 in 10.0 mi Variable 4.6 mph - N/A   Overcast
6:53 PM 53.6 °F - 46.4 °F 77% 30.22 in 10.0 mi NW 6.9 mph - N/A   Partly Cloudy
7:53 PM 54.0 °F - 48.0 °F 80% 30.24 in 10.0 mi WNW 8.1 mph - N/A   Overcast
8:53 PM 53.1 °F - 48.0 °F 83% 30.26 in 10.0 mi WSW 4.6 mph - N/A   Overcast
9:20 PM 53.1 °F - 48.9 °F 86% 30.26 in 10.0 mi West 4.6 mph - N/A   Overcast
9:53 PM 52.0 °F - 48.0 °F 86% 30.28 in 10.0 mi NW 4.6 mph - N/A   Overcast
10:49 PM 51.8 °F - 48.2 °F 88% 30.28 in 10.0 mi West 4.6 mph - N/A   Overcast
10:53 PM 51.8 °F - 48.2 °F 88% 30.28 in 10.0 mi West 5.8 mph - N/A   Overcast
11:53 PM 52.0 °F - 48.9 °F 89% 30.30 in 10.0 mi West 5.8 mph - N/A   Overcast